DLH457 KLAX-EDDF

Flight info

Callsign DLH457
Flight time N/A
Altitude 35000
Route OSHNN1 BEALE DCT BAWER DCT KU54Q DCT KD63S DCT KD72U DCT KD81W DCT DPR DCT GABOV/N0471F370 DCT 5130N09000W 5530N08000W 59N070W DCT RODBO DCT MIBNO/M081F370 DCT NIFTY DCT 61N050W 61N040W 61N030W 60N020W DCT ERAKA/N0467F370 DCT ETSOM/N0468F390 DCT GODOS DCT SOGPO DCT DIXAT DIXAT1D
Aircraft A346/H-SDE2E3FGHIJ3J4J5M1RWXY/LB1D1

Departure

Time 2026-04-26 22:52
Airport Los Angeles International Airport (KLAX)

Arrival

Time N/A
Airport Frankfurt Main Airport (EDDF)
Time Latitude Longitude Altitude Speed Heading
2026-04-26 21:31 33.94020 -118.41081 101 ft 0 kts 83°
2026-04-26 22:38 33.94019 -118.41095 101 ft 4 kts 83°
2026-04-26 22:38 33.94015 -118.41127 100 ft 4 kts 83°
2026-04-26 22:38 33.94013 -118.41152 100 ft 4 kts 90°
2026-04-26 22:39 33.94017 -118.41175 101 ft 4 kts 126°
2026-04-26 22:39 33.94028 -118.41185 101 ft 4 kts 169°
2026-04-26 22:39 33.94053 -118.41189 101 ft 4 kts 173°
2026-04-26 22:39 33.94071 -118.41191 101 ft 0 kts 173°
2026-04-26 22:43 33.94069 -118.41191 104 ft 1 kts 173°
2026-04-26 22:43 33.94053 -118.41189 102 ft 4 kts 173°
2026-04-26 22:43 33.94018 -118.41184 102 ft 6 kts 173°
2026-04-26 22:43 33.93964 -118.41176 102 ft 9 kts 173°
2026-04-26 22:44 33.93892 -118.41166 102 ft 11 kts 173°
2026-04-26 22:44 33.93814 -118.41155 103 ft 4 kts 173°
2026-04-26 22:44 33.93780 -118.41147 102 ft 5 kts 149°
2026-04-26 22:44 33.93767 -118.41107 105 ft 7 kts 91°
2026-04-26 22:45 33.93773 -118.41035 101 ft 10 kts 83°
2026-04-26 22:45 33.93782 -118.40935 103 ft 13 kts 83°
2026-04-26 22:45 33.93794 -118.40817 104 ft 15 kts 83°
2026-04-26 22:45 33.93808 -118.40681 102 ft 18 kts 82°
2026-04-26 22:46 33.93826 -118.40519 106 ft 21 kts 83°
2026-04-26 22:46 33.93845 -118.40324 104 ft 25 kts 83°
2026-04-26 22:46 33.93867 -118.40110 107 ft 26 kts 83°
2026-04-26 22:46 33.93890 -118.39887 104 ft 27 kts 83°
2026-04-26 22:47 33.93913 -118.39651 103 ft 29 kts 83°
2026-04-26 22:47 33.93939 -118.39408 105 ft 30 kts 82°
2026-04-26 22:47 33.93965 -118.39163 104 ft 28 kts 83°
2026-04-26 22:47 33.93988 -118.38937 102 ft 27 kts 83°
2026-04-26 22:48 33.94011 -118.38708 106 ft 28 kts 83°
2026-04-26 22:48 33.94033 -118.38482 105 ft 23 kts 83°
2026-04-26 22:48 33.94049 -118.38322 105 ft 16 kts 83°
2026-04-26 22:48 33.94061 -118.38201 103 ft 16 kts 83°
2026-04-26 22:49 33.94073 -118.38088 101 ft 10 kts 82°
2026-04-26 22:49 33.94074 -118.38026 101 ft 7 kts 121°
2026-04-26 22:49 33.94025 -118.37996 102 ft 9 kts 178°
2026-04-26 22:49 33.93984 -118.38041 104 ft 9 kts 247°
2026-04-26 22:50 33.93978 -118.38072 102 ft 0 kts 262°
2026-04-26 22:50 33.93978 -118.38073 102 ft 0 kts 262°
2026-04-26 22:51 33.93978 -118.38074 102 ft 1 kts 262°
2026-04-26 22:51 33.93969 -118.38154 104 ft 30 kts 263°
2026-04-26 22:51 33.93922 -118.38629 106 ft 83 kts 263°
2026-04-26 22:51 33.93830 -118.39523 106 ft 130 kts 263°
2026-04-26 22:52 33.93703 -118.40768 112 ft 167 kts 262°
2026-04-26 22:52 33.93594 -118.42204 491 ft 174 kts 264°
2026-04-26 22:52 33.93502 -118.43667 989 ft 180 kts 263°
2026-04-26 22:52 33.93386 -118.45172 1541 ft 179 kts 258°
2026-04-26 22:53 33.92947 -118.46560 2088 ft 180 kts 241°
2026-04-26 22:53 33.92141 -118.47802 2322 ft 197 kts 232°
2026-04-26 22:53 33.91205 -118.49086 2571 ft 211 kts 233°
2026-04-26 22:53 33.90198 -118.50468 2864 ft 228 kts 231°
2026-04-26 22:54 33.89113 -118.51951 3214 ft 243 kts 232°
2026-04-26 22:54 33.87993 -118.53513 3761 ft 249 kts 233°
2026-04-26 22:54 33.86810 -118.55048 4435 ft 253 kts 221°
2026-04-26 22:54 33.85186 -118.55962 4876 ft 266 kts 193°
2026-04-26 22:55 33.83317 -118.55862 5000 ft 276 kts 172°
2026-04-26 22:55 33.81449 -118.55343 4999 ft 275 kts 171°
2026-04-26 22:55 33.79583 -118.54800 5005 ft 274 kts 169°
2026-04-26 22:55 33.77706 -118.54264 5134 ft 282 kts 171°
2026-04-26 22:56 33.75786 -118.53728 5873 ft 282 kts 171°
2026-04-26 22:56 33.73865 -118.53210 6760 ft 280 kts 171°
2026-04-26 22:56 33.71943 -118.52688 7508 ft 283 kts 170°
2026-04-26 22:56 33.70122 -118.51688 8123 ft 298 kts 142°
2026-04-26 22:57 33.68880 -118.49668 8778 ft 307 kts 113°
2026-04-26 22:57 33.68168 -118.47232 9470 ft 312 kts 109°
2026-04-26 22:57 33.67493 -118.44728 10060 ft 318 kts 109°
2026-04-26 22:57 33.66790 -118.42203 10508 ft 329 kts 110°
2026-04-26 22:58 33.66008 -118.39499 10799 ft 346 kts 110°
2026-04-26 22:58 33.65197 -118.36708 11105 ft 362 kts 108°
2026-04-26 22:58 33.64613 -118.33734 11394 ft 378 kts 98°
2026-04-26 22:58 33.64408 -118.30516 11687 ft 393 kts 90°
2026-04-26 22:59 33.64409 -118.27125 12000 ft 408 kts 88°
2026-04-26 22:59 33.64445 -118.23722 12535 ft 414 kts 88°
2026-04-26 22:59 33.64670 -118.20274 13188 ft 417 kts 75°
2026-04-26 22:59 33.65848 -118.17125 13871 ft 412 kts 51°
2026-04-26 23:00 33.67860 -118.14725 14504 ft 405 kts 33°
2026-04-26 23:00 33.70151 -118.12735 15121 ft 408 kts 32°
2026-04-26 23:00 33.72475 -118.10734 15669 ft 413 kts 32°
2026-04-26 23:00 33.74847 -118.08663 16244 ft 417 kts 32°
2026-04-26 23:01 33.77194 -118.06587 16721 ft 420 kts 33°
2026-04-26 23:01 33.79613 -118.04426 17269 ft 423 kts 33°
2026-04-26 23:01 33.82016 -118.02271 17847 ft 426 kts 33°
2026-04-26 23:01 33.84403 -118.00125 18410 ft 430 kts 33°
2026-04-26 23:02 33.86805 -117.97962 18883 ft 434 kts 33°
2026-04-26 23:02 33.89234 -117.95770 19380 ft 438 kts 33°
2026-04-26 23:02 33.91685 -117.93558 19877 ft 441 kts 33°
2026-04-26 23:02 33.93310 -117.92079 20190 ft 444 kts 33°
2026-04-26 23:03 33.95779 -117.89821 20659 ft 447 kts 33°
2026-04-26 23:03 33.98270 -117.87542 21136 ft 451 kts 33°
2026-04-26 23:03 34.00778 -117.85244 21592 ft 455 kts 33°
2026-04-26 23:03 34.03308 -117.82927 22052 ft 458 kts 33°
2026-04-26 23:04 34.05857 -117.80578 22510 ft 463 kts 34°
2026-04-26 23:04 34.08317 -117.78038 22963 ft 469 kts 39°
2026-04-26 23:04 34.10631 -117.75227 23364 ft 474 kts 45°
2026-04-26 23:04 34.12787 -117.72186 23741 ft 479 kts 47°
2026-04-26 23:05 34.14899 -117.69047 24115 ft 483 kts 48°
2026-04-26 23:05 34.17018 -117.65861 24464 ft 486 kts 49°
2026-04-26 23:05 34.19143 -117.62674 24866 ft 489 kts 49°
2026-04-26 23:05 34.21286 -117.59472 25297 ft 490 kts 49°
2026-04-26 23:06 34.23438 -117.56260 25718 ft 492 kts 49°
2026-04-26 23:06 34.25599 -117.53034 26087 ft 495 kts 48°
2026-04-26 23:06 34.27776 -117.49789 26413 ft 498 kts 48°
2026-04-26 23:06 34.29970 -117.46516 26744 ft 502 kts 49°
2026-04-26 23:07 34.32193 -117.43201 27045 ft 506 kts 49°
2026-04-26 23:07 34.34416 -117.39881 27365 ft 509 kts 49°
2026-04-26 23:07 34.36652 -117.36537 27702 ft 512 kts 49°
2026-04-26 23:07 34.38900 -117.33169 28091 ft 514 kts 49°
2026-04-26 23:08 34.41147 -117.29799 28580 ft 513 kts 49°
2026-04-26 23:08 34.43386 -117.26437 29070 ft 512 kts 49°
2026-04-26 23:08 34.45626 -117.23071 29545 ft 512 kts 49°
2026-04-26 23:08 34.47863 -117.19707 29977 ft 513 kts 49°
2026-04-26 23:09 34.50105 -117.16332 30344 ft 513 kts 48°
2026-04-26 23:09 34.52346 -117.12953 30661 ft 515 kts 48°
2026-04-26 23:09 34.54600 -117.09560 30919 ft 517 kts 48°
2026-04-26 23:09 34.56891 -117.06198 31277 ft 516 kts 47°
2026-04-26 23:10 34.59194 -117.02857 31701 ft 515 kts 47°
2026-04-26 23:10 34.61489 -116.99531 32030 ft 515 kts 47°
2026-04-26 23:10 34.63793 -116.96184 32315 ft 517 kts 47°
2026-04-26 23:10 34.66101 -116.92823 32558 ft 519 kts 47°
2026-04-26 23:11 34.68414 -116.89450 32848 ft 520 kts 47°
2026-04-26 23:11 34.70733 -116.86058 33155 ft 522 kts 47°
2026-04-26 23:11 34.73059 -116.82653 33381 ft 524 kts 47°
2026-04-26 23:11 34.75394 -116.79231 33582 ft 527 kts 47°
2026-04-26 23:12 34.77747 -116.75778 33818 ft 530 kts 47°
2026-04-26 23:12 34.80107 -116.72312 34033 ft 532 kts 47°
2026-04-26 23:12 34.82477 -116.68830 34163 ft 535 kts 47°
2026-04-26 23:12 34.84855 -116.65335 34384 ft 536 kts 46°
2026-04-26 23:13 34.87316 -116.61925 34606 ft 535 kts 44°
2026-04-26 23:13 34.89825 -116.58561 34829 ft 537 kts 44°
2026-04-26 23:13 34.92350 -116.55209 34855 ft 536 kts 44°
2026-04-26 23:14 34.97378 -116.48517 34855 ft 534 kts 44°
2026-04-26 23:14 35.02381 -116.41819 34845 ft 534 kts 44°
2026-04-26 23:15 35.07378 -116.35108 34849 ft 534 kts 44°
2026-04-26 23:15 35.12374 -116.28385 34846 ft 535 kts 45°
2026-04-26 23:16 35.17347 -116.21681 34843 ft 535 kts 45°
2026-04-26 23:16 35.22342 -116.14929 34850 ft 536 kts 45°
2026-04-26 23:17 35.27333 -116.08175 34879 ft 533 kts 45°
2026-04-26 23:17 35.32297 -116.01439 34865 ft 532 kts 45°
2026-04-26 23:18 35.37252 -115.94703 34874 ft 532 kts 45°
2026-04-26 23:18 35.42205 -115.87957 34884 ft 532 kts 45°
2026-04-26 23:19 35.47155 -115.81202 34890 ft 532 kts 45°
2026-04-26 23:19 35.52106 -115.74432 34894 ft 532 kts 45°
2026-04-26 23:20 35.57047 -115.67661 34891 ft 532 kts 45°
2026-04-26 23:20 35.61982 -115.60885 34898 ft 532 kts 45°
2026-04-26 23:21 35.66927 -115.54082 34901 ft 533 kts 45°
2026-04-26 23:21 35.71867 -115.47271 34906 ft 533 kts 45°
2026-04-26 23:22 35.76807 -115.40449 34906 ft 533 kts 45°
2026-04-26 23:22 35.81748 -115.33612 34903 ft 533 kts 45°
2026-04-26 23:23 35.86681 -115.26771 34885 ft 533 kts 45°
2026-04-26 23:23 35.91598 -115.19939 34885 ft 530 kts 46°
2026-04-26 23:24 35.96462 -115.13161 34879 ft 529 kts 46°
2026-04-26 23:24 36.01334 -115.06360 34876 ft 529 kts 46°
2026-04-26 23:25 36.06205 -114.99545 34842 ft 529 kts 46°
2026-04-26 23:25 36.11079 -114.92712 34798 ft 529 kts 46°
2026-04-26 23:26 36.15946 -114.85877 34791 ft 529 kts 46°
2026-04-26 23:26 36.20587 -114.78766 34784 ft 531 kts 51°
2026-04-26 23:27 36.24958 -114.71372 34788 ft 529 kts 52°
2026-04-26 23:27 36.29284 -114.63989 34775 ft 528 kts 52°
2026-04-26 23:28 36.33588 -114.56651 34770 ft 528 kts 52°
2026-04-26 23:28 36.37914 -114.49276 34774 ft 528 kts 52°
2026-04-26 23:29 36.42241 -114.41890 34772 ft 528 kts 52°
2026-04-26 23:29 36.46563 -114.34492 34784 ft 529 kts 52°
2026-04-26 23:30 36.50888 -114.27076 34783 ft 529 kts 52°
2026-04-26 23:30 36.55212 -114.19648 34789 ft 529 kts 52°
2026-04-26 23:31 36.59528 -114.12217 34809 ft 528 kts 52°
2026-04-26 23:31 36.63815 -114.04818 34801 ft 526 kts 52°
2026-04-26 23:32 36.68069 -113.97459 34809 ft 527 kts 52°
2026-04-26 23:32 36.72352 -113.90032 34809 ft 527 kts 52°
2026-04-26 23:33 36.76634 -113.82596 34815 ft 527 kts 52°
2026-04-26 23:33 36.80905 -113.75159 34827 ft 527 kts 52°
2026-04-26 23:34 36.85180 -113.67698 34848 ft 528 kts 52°
2026-04-26 23:34 36.89459 -113.60213 34854 ft 528 kts 52°
2026-04-26 23:35 36.93739 -113.52714 34877 ft 528 kts 52°
2026-04-26 23:35 36.97992 -113.45243 34872 ft 526 kts 52°
2026-04-26 23:36 37.02235 -113.37773 34849 ft 527 kts 52°
2026-04-26 23:36 37.06482 -113.30279 34867 ft 527 kts 52°
2026-04-26 23:37 37.10722 -113.22783 34876 ft 527 kts 52°
2026-04-26 23:37 37.14960 -113.15272 34876 ft 527 kts 53°
2026-04-26 23:38 37.19194 -113.07751 34873 ft 527 kts 53°
2026-04-26 23:38 37.23425 -113.00220 34860 ft 528 kts 53°
2026-04-26 23:39 37.27651 -112.92681 34822 ft 528 kts 53°
2026-04-26 23:39 37.31867 -112.85137 34833 ft 525 kts 53°
2026-04-26 23:40 37.36065 -112.77612 34817 ft 525 kts 53°
2026-04-26 23:40 37.40262 -112.70072 34810 ft 526 kts 53°
2026-04-26 23:41 37.44456 -112.62523 34806 ft 526 kts 53°
2026-04-26 23:41 37.48650 -112.54955 34791 ft 526 kts 53°
2026-04-26 23:42 37.52835 -112.47383 34806 ft 526 kts 53°
2026-04-26 23:42 37.59107 -112.36002 34833 ft 526 kts 53°
2026-04-26 23:43 37.62580 -112.29688 34865 ft 526 kts 53°
2026-04-26 23:43 37.66974 -112.22330 34908 ft 522 kts 50°
2026-04-26 23:44 37.71460 -112.15104 34900 ft 522 kts 49°
2026-04-26 23:44 37.75940 -112.07868 34897 ft 523 kts 50°
2026-04-26 23:45 37.80417 -112.00605 34861 ft 523 kts 50°
2026-04-26 23:45 37.84884 -111.93333 34820 ft 523 kts 50°
2026-04-26 23:46 37.89348 -111.86049 34776 ft 523 kts 50°
2026-04-26 23:46 37.93776 -111.78803 34730 ft 523 kts 50°
2026-04-26 23:47 37.98236 -111.71486 34744 ft 523 kts 50°
2026-04-26 23:47 37.98986 -111.70256 34741 ft 522 kts 50°